{"data":{"norad_id":62308,"intl_designator":"2024-239H","name":"STARLINK-32706","alt_names":[],"object_type":"PAYLOAD","status":"ACTIVE","operator":null,"country":"US","launch_date":"2024-12-13","launch_site_code":"AFWTR","launch_vehicle":null,"mission":null,"orbit_class":"UNKNOWN","rcs_meters":null,"size_class":null,"mass_kg":null,"dimensions":null,"purposes":["comms"],"wikipedia_slug":null,"has_3d_model":false,"image_url":null,"decayed_at":null,"tle_current":{"epoch":"2026-05-25T03:07:57.387648Z","epoch_age_seconds":70753,"freshness":"FRESH","line1":"1 62308U 24239H   26145.13052532  .00012464  00000+0  43211-3 0  9998","line2":"2 62308  53.1592 199.1228 0001366  86.1069 274.0088 15.30209186 81085","mean_motion":15.30209186,"eccentricity":0.0001366,"inclination_deg":53.1592,"raan_deg":199.1228,"arg_perigee_deg":86.1069,"mean_anomaly_deg":274.0088,"bstar":0.00043211,"rev_number":8108,"period_min":94.104780782567,"perigee_km":474.25147767025,"apogee_km":476.12380596239,"semimajor_km":6853.3246418163,"source":"CELESTRAK","updated_at":"2026-05-25T13:38:19.648494Z"}}}